GSAT0214 (GALILEO 18)

Last updated on Tue Oct 21 2025 00:02:35 GMT+0000 (Coordinated Universal Time)

1 41862U 16069D 25293.20026031 .00000049 00000+0 00000+0 0 9999 2 41862 55.3503 107.7283 0000725 333.5542 26.4799 1.70474412 55558
UTC large
Height (km)
Speed (km/s)
/
Latitude / Longitude
Inclination (degrees)
Orbital Period (minutes)
Azimuth
Elevation
Range (km)
Doppler Factor

Next 0 passes for location: London (51.5072 / 0.1276)

Sorry there are no passes over London.